Location: Hohenfelde
(53.8441°N, 9.6220°E)
Time: 12:25:04
(UTC+00:00)

Gbstr 26 Del rocket - Pass Details

Date: 14 July 2020
Orbit: 492 x 1264 km, 51.8° (Epoch: 13 August)

Event Time Altitude Azimuth Distance (km) Brightness Sun altitude
Rises 01:37:45 0° 280° (W) 2,655 6.1 -9.5°
Reaches altitude 10° 01:39:55 10° 272° (W) 1,822 5.2 -9.3°
Maximum altitude 01:43:43 37° 204° (SSW) 941 3.5 -9.0°
Drops below altitude 10° 01:48:09 10° 137° (SE) 2,140 5.7 -8.7°
Sets 01:50:53 0° 130° (SE) 3,191 6.6 -8.4°
